User: anonymous   Login
Location: Caltech
(34.1382°N, 118.1253°W)
Time: 12:57:04
(UTC-07:00)
Language:

OPAL - Orbit

View from above orbital plane
View from above orbital plane
View from above satellite
View from above satellite

Ground track
Ground track

The orbit data is extracted from the following two-line orbital elements,

1 26063U 00004C   16238.92747535  .00000001  00000-0  20083-4 0  9991
2 26063 100.1917 182.0378 0037200  61.3428 299.1485 14.36628446868995
Epoch (UTC): 25 August 2016 22:15:33
Eccentricity: 0.0037200
inclination: 100.1917°
perigee height: 743 km
apogee height: 796 km
right ascension of ascending node: 182.0378°
argument of perigee: 61.3428°
revolutions per day: 14.36628446
mean anomaly at epoch: 299.1485°
orbit number at epoch: 86899

The dashed part of the orbit path shows where the satellite is in the earth's shadow,  

DLR